Terminal Aerodrome Forecast
Issued by NWS

Home | Current Version | Previous Version | Text Only | Print | Product List | Glossary On
Versions: 1 2 3 4 5 6 7 8 9 10 11 12 13 14 15 16 17 18 19 20 21 22 23 24 25 26 27 28 29 30 31 32 33 34 35 36 37 38 39 40 41 42 43 44 45 46 47 48 49 50
000
FTUS44 KHGX 191504 AAA
TAFIAH
TAF AMD
KIAH 191504Z 1915/2018 01004KT 5SM -RA BR BKN007 OVC013
      TEMPO 1915/1918 2SM TSRA SCT004 OVC013CB
     FM191900 02010KT P6SM VCSH SCT010 BKN025
     FM200000 02007KT P6SM BKN010 OVC015
     FM200900 01008KT P6SM BKN015=

USA.gov is the U.S. government's official web portal to all federal, state and local government web resources and services.